• In Italy
  • List of Countries
  • For 7 days
  • Water Temperature
  • Satellite Maps
  • Weather Map
  • Weather Widgets
  • user-avatar
    Login

    Hourly Weather Ipswich

    Today, 24 November, Friday

    Time Temperature Precipitation Wind Pressure Humidity
    00:00 +7°C° 0.1 mm 3 mps 753 mmHg 80%
    01:00 +7°C° 0.3 mm 3 mps 753 mmHg 81%
    02:00 +7°C° 0.3 mm 2 mps 753 mmHg 81%
    03:00 +6°C° 0.3 mm 2 mps 753 mmHg 82%
    04:00 +6°C° 0.1 mm 2 mps 753 mmHg 81%
    05:00 +5°C° 0.1 mm 3 mps 753 mmHg 81%
    06:00 +5°C° 0.1 mm 3 mps 754 mmHg 80%
    07:00 +4°C° 0 mm 3 mps 754 mmHg 79%
    08:00 +4°C° 0 mm 3 mps 755 mmHg 79%
    09:00 +4°C° 0 mm 3 mps 756 mmHg 78%
    10:00 +5°C° 0 mm 3 mps 756 mmHg 73%
    11:00 +7°C° 0 mm 3 mps 756 mmHg 68%
    12:00 +8°C° 0 mm 3 mps 757 mmHg 62%
    13:00 +7°C° 0 mm 2 mps 757 mmHg 63%
    14:00 +7°C° 0 mm 2 mps 757 mmHg 65%
    15:00 +7°C° 0 mm 2 mps 757 mmHg 66%
    16:00 +6°C° 0 mm 2 mps 757 mmHg 69%
    17:00 +5°C° 0 mm 2 mps 757 mmHg 72%
    18:00 +4°C° 0 mm 2 mps 757 mmHg 76%
    19:00 +4°C° 0 mm 2 mps 757 mmHg 78%
    20:00 +3°C° 0 mm 2 mps 757 mmHg 80%
    21:00 +3°C° 0 mm 2 mps 757 mmHg 82%
    22:00 +2°C° 0 mm 2 mps 757 mmHg 83%
    23:00 +1°C° 0 mm 3 mps 757 mmHg 84%

    Tomorrow, 25 November, Saturday

    Time Temperature Precipitation Wind Pressure Humidity
    00:00 +1°C° 0 mm 3 mps 757 mmHg 85%
    01:00 +1°C° 0 mm 3 mps 757 mmHg 86%
    02:00 0°C° 0 mm 3 mps 757 mmHg 86%
    03:00 0°C° 0 mm 3 mps 756 mmHg 87%
    04:00 0°C° 0 mm 3 mps 757 mmHg 87%
    05:00 -1°C° 0 mm 4 mps 757 mmHg 88%
    06:00 -1°C° 0 mm 4 mps 757 mmHg 89%
    07:00 0°C° 0 mm 4 mps 758 mmHg 85%
    08:00 0°C° 0 mm 5 mps 758 mmHg 82%
    09:00 +1°C° 0 mm 5 mps 759 mmHg 79%
    10:00 +2°C° 0 mm 5 mps 759 mmHg 74%
    11:00 +3°C° 0 mm 5 mps 759 mmHg 69%
    12:00 +3°C° 0 mm 6 mps 760 mmHg 64%
    13:00 +3°C° 0 mm 6 mps 760 mmHg 64%
    14:00 +3°C° 0 mm 5 mps 761 mmHg 65%
    15:00 +3°C° 0 mm 5 mps 761 mmHg 65%
    16:00 +2°C° 0 mm 5 mps 761 mmHg 69%
    17:00 +1°C° 0 mm 6 mps 762 mmHg 73%
    18:00 +1°C° 0 mm 6 mps 762 mmHg 77%
    19:00 -1°C° 0 mm 6 mps 763 mmHg 78%
    20:00 -1°C° 0 mm 6 mps 763 mmHg 78%
    21:00 -1°C° 0 mm 6 mps 764 mmHg 79%
    22:00 -1°C° 0 mm 6 mps 764 mmHg 79%
    23:00 -1°C° 0 mm 6 mps 764 mmHg 79%

    Day after tomorrow, 26 November, Sunday

    Time Temperature Precipitation Wind Pressure Humidity
    00:00 -1°C° 0 mm 7 mps 765 mmHg 79%
    01:00 -2°C° 0 mm 7 mps 765 mmHg 80%
    02:00 -2°C° 0 mm 7 mps 765 mmHg 80%
    03:00 -2°C° 0 mm 7 mps 765 mmHg 81%
    04:00 -2°C° 0 mm 7 mps 765 mmHg 81%
    05:00 -2°C° 0 mm 7 mps 765 mmHg 82%
    06:00 -2°C° 0 mm 7 mps 766 mmHg 82%
    07:00 -1°C° 0 mm 7 mps 766 mmHg 81%
    08:00 -1°C° 0 mm 7 mps 766 mmHg 79%
    09:00 -1°C° 0 mm 7 mps 767 mmHg 78%
    10:00 0°C° 0 mm 7 mps 767 mmHg 72%
    11:00 +3°C° 0 mm 7 mps 767 mmHg 67%
    12:00 +4°C° 0 mm 7 mps 767 mmHg 62%
    13:00 +3°C° 0 mm 7 mps 767 mmHg 64%
    14:00 +3°C° 0 mm 7 mps 768 mmHg 66%
    15:00 +3°C° 0 mm 6 mps 768 mmHg 68%
    16:00 +3°C° 0 mm 6 mps 768 mmHg 71%
    17:00 +2°C° 0 mm 6 mps 768 mmHg 73%
    18:00 +2°C° 0 mm 6 mps 768 mmHg 76%
    19:00 +2°C° 0 mm 6 mps 768 mmHg 78%
    20:00 +2°C° 0 mm 6 mps 768 mmHg 79%
    21:00 +1°C° 0 mm 6 mps 768 mmHg 80%
    22:00 +1°C° 0 mm 6 mps 768 mmHg 80%
    23:00 +1°C° 0 mm 6 mps 768 mmHg 80%

    27 November, Monday

    Time Temperature Precipitation Wind Pressure Humidity
    00:00 +1°C° 0 mm 5 mps 768 mmHg 80%
    01:00 +1°C° 0 mm 6 mps 767 mmHg 80%
    02:00 +1°C° 0 mm 6 mps 767 mmHg 80%
    03:00 +2°C° 0 mm 7 mps 766 mmHg 80%
    04:00 +2°C° 0 mm 7 mps 766 mmHg 81%
    05:00 +2°C° 0 mm 8 mps 765 mmHg 82%
    06:00 +2°C° 0 mm 8 mps 764 mmHg 83%
    07:00 +3°C° 0.6 mm 9 mps 764 mmHg 84%
    08:00 +3°C° 0.6 mm 9 mps 763 mmHg 85%
    09:00 +5°C° 0.6 mm 10 mps 763 mmHg 86%
    10:00 +5°C° 0.4 mm 10 mps 763 mmHg 84%
    11:00 +6°C° 0.4 mm 9 mps 762 mmHg 83%
    12:00 +7°C° 0.4 mm 9 mps 762 mmHg 81%
    13:00 +6°C° 0 mm 8 mps 761 mmHg 79%
    14:00 +6°C° 0 mm 7 mps 761 mmHg 76%
    15:00 +5°C° 0 mm 7 mps 761 mmHg 73%
    16:00 +5°C° 0 mm 7 mps 761 mmHg 75%
    17:00 +4°C° 0 mm 7 mps 761 mmHg 77%
    18:00 +3°C° 0 mm 7 mps 762 mmHg 80%
    19:00 +3°C° 0 mm 6 mps 762 mmHg 80%
    20:00 +3°C° 0 mm 6 mps 762 mmHg 81%
    21:00 +3°C° 0 mm 6 mps 761 mmHg 82%
    22:00 +2°C° 0 mm 6 mps 761 mmHg 82%
    23:00 +2°C° 0 mm 6 mps 761 mmHg 83%

    28 November, Tuesday

    Time Temperature Precipitation Wind Pressure Humidity
    00:00 +2°C° 0 mm 6 mps 760 mmHg 83%
    01:00 +2°C° 0 mm 6 mps 760 mmHg 83%
    02:00 +2°C° 0 mm 6 mps 759 mmHg 83%
    03:00 +2°C° 0 mm 7 mps 758 mmHg 83%
    04:00 +3°C° 0.1 mm 7 mps 757 mmHg 83%
    05:00 +2°C° 0.1 mm 8 mps 755 mmHg 83%
    06:00 +3°C° 0.1 mm 9 mps 754 mmHg 82%
    07:00 +3°C° 0.6 mm 10 mps 753 mmHg 82%
    08:00 +3°C° 0.6 mm 11 mps 752 mmHg 82%
    09:00 +4°C° 0.6 mm 11 mps 751 mmHg 82%
    10:00 +4°C° 0.2 mm 11 mps 750 mmHg 77%
    11:00 +4°C° 0.2 mm 11 mps 749 mmHg 72%
    12:00 +6°C° 0.2 mm 10 mps 748 mmHg 68%
    13:00 +4°C° 0.2 mm 11 mps 748 mmHg 68%
    14:00 +4°C° 0.2 mm 11 mps 747 mmHg 69%
    15:00 +3°C° 0.2 mm 12 mps 747 mmHg 69%
    16:00 +3°C° 0 mm 11 mps 747 mmHg 71%
    17:00 +2°C° 0 mm 10 mps 748 mmHg 73%
    18:00 +2°C° 0 mm 9 mps 748 mmHg 75%
    19:00 +2°C° 0 mm 9 mps 748 mmHg 78%
    20:00 +2°C° 0 mm 9 mps 748 mmHg 81%
    21:00 +3°C° 0 mm 9 mps 748 mmHg 83%
    22:00 +3°C° 0 mm 9 mps 748 mmHg 84%
    23:00 +2°C° 0 mm 8 mps 748 mmHg 84%

    29 November, Wednesday

    Time Temperature Precipitation Wind Pressure Humidity
    00:00 +2°C° 0 mm 8 mps 748 mmHg 84%
    01:00 +2°C° 0.1 mm 8 mps 749 mmHg 85%
    02:00 +2°C° 0.1 mm 8 mps 749 mmHg 85%
    03:00 +3°C° 0.1 mm 7 mps 749 mmHg 85%
    04:00 +3°C° 0.4 mm 7 mps 749 mmHg 84%
    05:00 +3°C° 0.4 mm 7 mps 749 mmHg 83%
    06:00 +4°C° 0.4 mm 7 mps 750 mmHg 83%
    07:00 +2°C° 0.3 mm 8 mps 750 mmHg 81%
    08:00 +2°C° 0.3 mm 8 mps 751 mmHg 79%
    09:00 +2°C° 0.3 mm 9 mps 751 mmHg 77%
    10:00 +2°C° 0.1 mm 9 mps 752 mmHg 76%
    11:00 +3°C° 0.1 mm 9 mps 752 mmHg 75%
    12:00 +3°C° 0.1 mm 9 mps 752 mmHg 73%
    13:00 +4°C° 0.1 mm 8 mps 753 mmHg 73%
    14:00 +4°C° 0.1 mm 8 mps 753 mmHg 72%
    15:00 +4°C° 0.1 mm 8 mps 754 mmHg 72%
    16:00 +4°C° 0 mm 8 mps 754 mmHg 74%
    17:00 +2°C° 0 mm 8 mps 755 mmHg 75%
    18:00 +2°C° 0 mm 8 mps 755 mmHg 77%
    19:00 +1°C° 0 mm 8 mps 756 mmHg 77%
    20:00 +1°C° 0 mm 8 mps 756 mmHg 78%
    21:00 +1°C° 0 mm 9 mps 757 mmHg 78%
    22:00 +1°C° 0 mm 9 mps 757 mmHg 79%
    23:00 0°C° 0 mm 9 mps 757 mmHg 79%
    Show more